Theta_e
342 344 345 347 348 347 347 348 344 341 344 346 347 347 348 349 349 349 346 345 347 348 348 347 346 344 344 344 345 346 344 344 344 342 341 341 343 344 343 343 343 343 342 341 342 342 344 345 344 344 347 348 347 347 347 348 348 347 346 347 347 347 346
340 342 343 345 347 347 348 347 343 341 344 344 346 348 348 351 350 347 346 346 347 348 347 346 344 344 344 344 345 343 342 342 343 343 343 343 344 344 344 344 343 343 343 343 342 343 343 343 344 344 344 346 347 348 347 347 347 347 345 345 345 343 344
341 342 343 345 346 347 348 344 343 343 344 343 344 346 347 351 350 348 347 346 347 347 347 345 345 345 345 345 343 343 343 342 342 341 340 338 340 340 342 344 343 341 342 343 343 342 343 343 344 344 343 343 344 346 347 345 345 345 345 346 344 343 343
342 342 344 347 349 350 349 344 342 341 342 343 344 346 348 351 350 348 348 348 346 346 345 345 345 345 345 344 343 344 344 343 343 341 340 340 340 341 341 342 343 342 341 341 341 342 343 343 343 343 343 343 344 344 347 347 346 345 345 345 343 343 343
345 344 344 345 346 348 348 343 340 340 340 342 345 348 350 349 347 348 348 347 345 345 345 346 346 347 347 345 344 344 343 343 342 342 342 341 343 343 342 341 341 341 341 341 342 342 343 343 342 342 342 344 345 343 343 344 344 344 344 344 342 341 340
343 343 343 344 346 348 347 342 340 339 339 340 345 347 346 344 344 343 345 347 345 345 347 347 347 347 345 347 346 344 344 343 343 343 342 342 342 341 340 340 340 340 340 341 341 340 342 342 342 342 342 340 339 340 340 342 342 343 343 343 343 342 340
343 344 343 344 345 347 347 343 338 338 340 341 346 347 342 340 340 338 340 343 343 344 345 345 346 346 346 346 346 345 343 342 342 342 341 342 342 341 340 341 341 340 341 343 342 342 341 341 342 343 343 342 342 342 343 342 343 344 343 342 341 341 341
344 344 345 345 345 345 345 343 339 339 340 342 343 340 336 337 337 336 338 339 340 340 341 341 345 346 346 346 345 343 342 341 341 340 340 340 340 340 340 340 339 340 342 340 341 342 341 342 343 343 343 343 342 343 344 344 343 342 343 342 341 341 340
345 346 345 344 344 344 344 344 341 340 342 343 344 341 339 339 337 337 338 338 338 338 338 336 338 345 347 345 344 342 342 342 340 339 340 339 338 336 336 336 338 339 339 338 338 340 341 340 342 343 345 344 344 344 344 342 341 342 342 342 342 341 340
345 346 348 346 344 343 344 344 343 343 344 345 344 343 342 342 340 338 337 336 336 336 336 337 336 338 344 345 342 341 341 341 340 339 337 333 335 335 335 334 336 337 337 337 337 337 340 341 343 343 344 343 344 345 344 341 340 339 340 340 341 340 338
345 348 347 345 344 344 345 343 343 345 346 346 346 345 345 344 341 339 340 338 335 334 334 337 340 339 340 341 338 338 340 340 339 337 336 335 332 333 332 331 332 334 335 336 336 337 338 339 341 342 343 342 343 343 344 342 340 340 340 341 342 340 337
346 347 346 346 345 345 344 345 347 347 347 346 345 345 346 345 344 341 340 340 338 335 336 337 339 337 338 336 335 337 338 339 338 336 335 334 333 333 334 334 335 334 333 333 332 334 334 336 338 341 342 343 342 344 345 344 343 342 341 341 341 339 337
345 346 346 344 345 345 346 347 346 347 346 345 344 345 346 344 342 340 341 342 339 338 338 341 341 342 339 336 333 336 338 337 337 336 334 335 335 336 333 332 332 331 331 332 332 331 333 335 338 341 344 344 344 343 343 343 342 341 342 342 341 338 337
342 344 345 344 345 345 345 346 346 345 345 344 343 345 344 343 341 341 341 342 340 339 339 339 342 342 340 338 336 337 337 337 336 336 337 336 337 337 336 335 335 335 335 335 333 330 332 333 336 337 338 339 340 341 342 345 344 343 342 343 340 337 336
340 340 342 342 344 345 345 344 345 344 344 343 344 344 343 342 342 342 345 343 343 339 339 342 343 342 339 338 338 338 339 337 337 337 337 337 336 335 335 335 335 334 335 334 334 334 334 336 334 335 336 338 340 342 342 344 345 343 341 338 337 338 336
339 339 339 341 343 344 345 345 345 344 345 345 343 343 342 343 344 343 343 343 340 341 341 343 344 343 340 337 337 338 338 337 338 338 337 336 335 335 335 333 333 332 332 332 332 334 335 336 337 335 334 335 339 341 342 343 345 338 332 332 335 335 335
338 337 338 340 343 343 344 344 345 344 343 343 342 343 342 344 344 344 340 338 335 340 342 343 344 343 340 338 337 337 337 337 337 337 336 336 335 335 334 333 332 332 332 333 335 335 336 335 334 334 335 336 337 338 338 340 343 332 327 327 327 333 335
336 337 338 339 341 343 343 343 343 343 343 342 342 343 344 344 344 344 343 337 337 338 342 343 342 341 340 338 337 336 337 337 337 336 335 335 335 335 334 333 332 332 333 333 333 333 334 333 334 335 337 338 337 336 336 337 334 326 326 327 326 328 335
336 338 338 339 341 342 342 341 343 343 341 340 340 343 345 347 345 344 344 341 341 343 342 342 340 340 339 338 336 336 337 338 337 336 335 335 335 335 334 333 331 331 331 331 332 333 333 333 333 335 337 336 335 334 334 334 332 324 324 325 324 324 328
336 338 339 339 341 341 342 342 342 342 341 342 343 342 345 346 346 346 345 341 343 344 344 341 340 339 338 338 337 337 337 337 337 336 335 335 335 335 334 331 330 331 331 332 333 333 332 333 333 333 335 334 333 334 335 334 331 324 323 322 321 321 324
336 337 338 339 340 341 343 343 343 343 342 342 341 342 343 345 348 347 343 342 341 345 344 342 340 339 339 338 338 338 337 337 337 336 336 336 335 334 333 331 331 331 331 331 331 331 331 331 332 333 333 332 331 331 331 332 326 323 321 320 317 317 320
335 336 338 339 341 342 344 343 344 343 344 344 344 343 343 346 346 341 339 342 342 344 343 341 339 338 339 338 338 338 338 338 337 337 337 336 336 333 331 331 331 331 332 333 331 331 330 330 330 330 330 331 331 330 331 331 325 322 320 317 315 316 332
334 337 339 341 342 344 347 347 346 345 348 347 347 346 344 343 344 342 338 339 340 342 341 338 337 337 338 338 338 338 338 338 337 338 337 337 334 332 330 330 330 330 333 332 331 328 327 329 328 331 330 330 331 332 333 333 327 317 315 315 314 317 334
335 338 340 341 345 346 349 348 348 349 347 347 348 347 345 344 344 344 341 339 340 339 338 336 335 337 338 339 340 339 339 338 339 338 337 337 334 332 330 329 331 330 333 331 330 328 328 329 329 331 331 330 331 330 330 329 325 312 311 312 314 319 334
334 337 341 343 343 345 347 348 349 349 350 349 347 348 349 348 345 344 343 340 337 337 335 335 337 337 338 340 341 340 339 338 339 338 337 336 333 332 331 330 331 331 332 332 331 330 331 330 329 329 330 328 329 333 331 331 326 315 312 310 313 323 336
337 339 342 345 345 347 349 351 350 348 346 346 347 350 350 348 345 343 340 336 335 335 335 337 339 340 341 340 340 340 340 339 339 339 338 336 335 334 333 333 332 331 330 330 329 328 328 328 329 328 328 328 329 330 331 331 331 327 311 312 312 313 331
338 339 340 339 341 345 347 349 348 345 345 346 349 350 348 346 344 342 342 340 337 336 336 339 342 341 343 344 340 339 339 338 338 338 338 337 335 334 334 333 331 330 330 327 328 329 328 329 329 329 329 328 329 330 331 331 330 330 316 315 312 314 316
337 337 340 340 343 342 343 342 345 346 345 349 351 348 346 345 344 343 343 340 337 339 340 342 343 345 346 345 341 338 337 337 338 339 337 338 338 337 336 334 333 331 330 328 328 330 330 330 330 329 329 329 329 331 333 335 332 331 321 312 309 307 308
338 336 336 339 341 342 339 341 340 341 342 341 343 345 344 344 343 342 342 340 341 341 342 344 345 346 346 344 340 339 338 338 339 339 337 337 338 338 335 334 333 333 333 332 332 330 329 329 329 329 327 328 328 330 331 335 337 325 330 315 311 306 307
340 339 338 335 335 339 337 341 342 341 342 339 342 343 343 342 341 341 340 341 344 345 344 346 346 346 344 343 340 338 338 337 338 338 339 339 339 338 336 333 331 331 332 333 330 328 327 328 328 328 327 327 326 329 329 334 335 325 321 325 315 310 306
339 339 338 337 333 338 338 337 339 342 343 343 343 343 342 341 339 339 339 342 345 346 345 345 344 343 342 340 339 338 337 337 337 337 336 337 338 337 334 332 331 329 331 332 329 328 328 328 328 328 327 326 326 327 327 330 332 334 329 322 321 314 310
341 341 339 339 339 340 337 336 337 337 339 342 344 343 342 342 340 339 341 344 345 348 345 343 343 341 340 339 337 337 337 336 336 335 334 334 334 334 333 330 328 327 329 329 328 329 328 328 326 326 327 325 325 325 326 329 332 334 330 325 322 318 314
339 338 338 338 342 341 338 337 334 335 336 337 343 342 340 341 340 341 343 345 347 346 345 343 341 339 338 337 336 337 337 336 332 330 331 335 334 332 331 329 328 328 327 327 327 327 326 326 327 326 325 324 324 325 326 328 329 328 325 324 323 323 322
339 339 341 340 340 338 337 337 337 336 337 337 340 341 339 337 339 341 342 341 340 338 341 340 339 337 336 335 334 334 335 335 331 331 329 330 332 328 328 328 328 327 329 328 328 327 326 327 327 325 324 323 323 324 324 324 325 323 317 316 317 317 319
338 340 340 342 341 340 339 339 337 337 336 336 339 338 337 336 335 335 338 337 336 337 338 337 336 335 334 335 335 333 334 332 332 332 331 328 331 332 328 329 334 332 330 324 323 324 326 327 325 324 323 323 324 322 322 323 321 317 305 306 301 303 308
337 337 338 337 336 337 337 336 336 334 335 337 337 335 335 334 335 334 332 334 335 337 337 337 335 334 331 331 331 330 329 329 328 329 329 328 328 330 323 310 301 312 327 320 309 304 300 304 319 316 320 323 323 320 316 315 314 302 296 295 294 294 294
334 333 333 333 334 335 335 336 335 335 335 335 335 334 333 333 333 334 332 335 336 336 336 337 333 330 328 329 328 328 329 327 326 327 330 329 333 330 326 321 315 298 298 305 305 300 296 295 296 298 302 312 320 315 303 305 300 296 294 294 294 293 292
336 335 333 333 334 334 334 333 334 333 334 335 334 334 334 332 333 335 333 336 336 336 337 336 333 330 328 328 330 331 328 326 327 328 327 330 329 332 327 323 319 313 299 296 299 298 295 295 294 295 296 296 300 307 319 307 300 295 294 294 294 294 292
Wind_Speed
17 16 15 13 13 14 14 13 14 13 13 12 11 12 11 10 9 8 8 8 9 8 8 6 5 3 3 2 2 1 1 1 2 3 3 4 3 4 4 5 5 5 5 5 5 6 6 7 7 7 6 6 6 6 5 5 5 5 6 6 7 6 7
17 15 15 14 14 14 15 14 14 12 12 12 11 12 10 11 9 9 9 9 9 8 7 6 4 4 3 3 2 2 2 2 2 3 3 3 3 3 4 5 6 6 5 5 5 6 6 7 7 7 7 6 6 6 5 5 5 5 5 5 6 7 7
16 15 15 14 14 14 15 14 13 12 13 12 12 12 11 11 10 10 9 8 8 7 6 5 5 4 4 3 3 3 3 3 3 4 4 4 5 5 5 5 5 6 6 6 5 6 6 6 7 7 7 6 5 5 5 6 6 5 5 5 6 7 7
15 16 16 15 14 14 15 14 15 13 12 13 13 12 11 11 9 8 8 8 8 7 7 6 5 5 4 4 4 4 4 3 3 4 4 4 5 5 5 6 6 6 6 6 6 5 6 6 7 7 7 6 6 6 6 6 6 6 6 5 6 7 7
15 15 15 14 15 14 14 14 14 13 13 13 12 11 10 10 9 9 8 8 7 7 7 6 5 5 4 4 3 3 3 4 4 4 4 4 5 5 5 6 6 6 6 6 6 6 6 7 7 7 7 6 6 6 6 6 6 6 6 7 7 7 7
15 16 15 15 15 14 14 15 15 15 13 13 12 11 10 11 10 11 9 8 7 7 6 6 6 5 5 5 4 4 4 4 4 4 4 5 5 5 5 5 6 6 6 6 6 6 6 7 7 7 8 7 7 8 7 7 7 6 7 7 7 7 7
14 16 15 15 15 15 15 15 15 14 13 12 11 11 10 10 10 9 8 9 9 9 8 8 7 6 5 4 4 5 5 5 4 5 5 5 5 6 5 5 5 5 5 6 6 6 7 7 7 8 7 8 8 7 7 7 7 6 6 6 7 7 8
13 14 15 15 15 15 15 15 15 14 13 11 11 12 11 10 9 9 9 8 8 9 8 8 7 6 5 4 4 5 5 5 5 5 5 6 6 6 6 5 5 5 5 6 6 6 7 7 7 7 7 8 8 7 7 7 7 6 6 6 7 8 6
12 13 15 16 16 15 15 15 14 13 13 13 12 11 10 9 9 8 8 8 7 7 7 7 6 5 5 5 5 5 5 5 5 5 6 6 6 7 6 7 5 4 6 7 7 6 7 7 8 8 7 8 8 7 7 6 7 6 6 6 7 8 8
12 12 13 14 14 14 14 14 14 12 13 12 11 10 11 9 8 7 7 7 7 7 7 6 5 5 6 5 5 6 6 6 5 6 7 7 6 7 7 7 6 5 5 6 7 8 7 8 8 8 7 8 8 8 7 7 6 6 6 7 7 8 9
11 12 13 15 16 16 16 16 15 13 12 12 11 10 10 9 9 8 7 7 7 6 6 5 5 5 5 5 6 6 6 6 6 6 6 7 7 7 7 7 7 7 8 7 8 8 8 8 8 8 8 7 8 8 8 8 7 7 7 6 6 7 8
10 11 12 14 15 16 17 15 13 12 12 10 10 10 9 9 9 8 8 8 7 6 5 5 5 5 5 6 5 5 6 6 6 7 7 7 6 7 7 7 8 8 8 7 8 8 8 8 7 7 9 8 8 8 9 8 8 8 7 7 7 7 8
9 10 12 15 15 13 13 13 14 13 12 11 11 10 9 9 9 8 8 8 8 5 5 5 5 5 5 6 6 5 6 6 6 6 6 6 6 6 7 8 9 9 9 9 10 10 9 9 9 9 8 9 8 9 9 9 9 8 7 6 7 7 7
10 10 11 13 14 16 16 14 14 14 13 13 12 10 9 9 9 9 8 9 7 7 7 5 6 6 6 6 6 6 6 6 6 6 6 6 6 7 7 8 8 8 8 9 10 10 10 10 9 9 8 9 8 8 9 9 8 8 7 6 6 7 7
11 12 13 14 15 15 15 15 15 15 14 12 12 11 11 9 9 8 8 8 7 7 7 6 6 6 6 6 6 6 6 6 6 6 6 6 7 7 7 7 8 8 9 9 9 9 10 10 10 9 9 8 8 8 8 8 7 6 5 5 6 6 7
11 12 13 15 15 15 15 16 15 15 14 13 13 12 11 9 9 10 10 9 8 8 7 6 7 7 7 7 6 6 6 6 6 6 6 7 7 7 8 8 8 8 9 10 10 9 9 9 9 10 9 9 8 8 7 6 6 2 3 4 5 6 6
11 13 13 13 14 15 15 15 15 15 15 14 13 12 11 10 10 10 11 10 9 8 7 7 7 8 7 7 6 6 6 6 6 6 7 7 6 7 8 8 7 8 9 9 9 9 9 9 9 9 9 9 8 7 7 6 5 7 7 7 6 6 7
12 12 13 14 14 14 15 16 16 16 15 14 13 13 11 10 10 10 10 9 8 7 7 8 8 8 7 7 6 6 6 6 6 7 7 7 7 7 7 7 8 8 9 8 9 8 8 9 9 9 8 7 8 8 7 8 1 10 8 8 6 6 6
10 11 12 13 14 15 16 16 16 16 15 14 13 12 13 12 11 11 10 9 8 7 7 8 8 8 7 7 7 7 6 6 7 7 7 7 7 7 6 6 8 8 8 8 8 8 8 9 9 8 8 8 9 8 8 9 2 10 8 8 7 7 7
8 9 11 12 13 14 14 13 12 13 15 14 13 14 12 12 11 10 10 9 9 8 8 8 8 7 8 7 7 7 7 7 7 7 8 7 7 7 6 7 7 7 7 7 7 7 8 8 9 8 8 8 9 8 8 9 1 9 8 8 8 7 8
8 8 9 10 11 12 13 13 13 13 13 13 14 12 11 11 10 10 9 9 9 9 8 8 8 8 8 7 7 7 7 8 8 8 8 7 7 7 7 7 7 7 6 6 7 7 7 8 8 8 8 8 9 9 9 7 2 9 9 9 8 8 8
7 8 9 9 12 13 13 14 14 14 14 12 11 11 11 11 11 11 11 10 10 9 9 8 8 9 8 8 7 8 7 8 8 7 7 7 7 7 7 7 7 7 6 6 6 6 7 7 7 8 9 9 9 9 9 8 5 9 9 8 8 7 7
6 8 8 9 11 12 12 13 13 13 12 10 10 11 11 11 10 11 10 11 10 10 9 9 9 9 9 8 8 8 7 7 7 7 7 7 7 7 7 7 7 7 6 6 7 7 7 7 7 7 8 9 9 9 8 9 3 9 9 9 7 6 7
4 6 8 9 9 9 10 10 10 10 10 11 11 11 10 10 10 9 10 10 10 10 10 10 10 9 9 9 8 7 7 7 8 8 8 7 8 7 7 7 6 6 6 6 7 7 7 7 7 7 8 9 9 8 9 10 5 9 8 9 8 7 7
5 7 7 9 10 10 11 10 10 10 9 9 10 11 10 9 10 10 10 11 11 11 11 10 10 10 10 9 8 7 7 7 8 8 8 8 8 7 7 7 6 6 5 6 6 7 6 6 7 8 8 9 10 5 6 8 6 7 9 9 7 6 6
6 7 7 7 7 7 8 8 8 8 9 10 12 9 9 9 9 11 10 11 12 12 12 11 10 9 9 8 7 6 6 7 7 8 8 8 8 7 7 6 7 7 6 6 7 6 6 7 8 9 9 9 9 9 7 7 8 1 7 4 6 7 6
7 6 7 8 8 7 7 7 8 10 11 9 7 6 8 8 9 10 10 10 11 13 13 10 9 8 7 7 7 7 7 7 7 8 8 8 8 7 7 6 6 6 6 7 6 6 6 7 8 9 9 9 9 9 7 6 7 3 7 4 0 3 6
8 7 6 5 8 7 6 7 7 8 9 6 5 6 7 8 9 9 9 10 12 13 11 9 8 8 7 7 7 7 7 7 6 6 7 7 8 8 7 7 7 6 6 6 6 6 6 7 8 8 8 9 9 8 7 1 4 5 7 7 4 3 6
8 8 8 8 7 7 6 6 7 7 7 6 7 6 7 8 9 9 9 10 13 11 10 8 9 9 8 7 7 7 7 7 7 6 6 7 8 9 8 7 7 6 6 5 5 5 7 7 7 8 8 8 7 8 7 4 2 4 0 6 3 2 3
6 6 6 7 6 5 6 4 4 4 4 4 4 5 6 7 8 9 10 12 11 10 10 10 9 8 7 7 7 8 7 7 6 6 6 7 8 8 9 8 7 6 5 4 5 5 6 6 7 7 8 8 8 7 7 4 6 5 3 3 1 4 5
6 6 5 5 4 4 3 4 4 4 4 4 5 6 7 7 9 10 12 11 9 9 10 9 9 8 8 7 7 8 8 6 6 5 5 7 8 9 8 8 7 6 5 5 5 5 5 6 7 7 7 8 8 8 7 6 6 3 5 3 2 5 4
6 5 5 5 4 3 3 3 5 6 6 7 7 7 7 8 9 11 11 9 8 9 9 9 9 8 7 7 7 8 7 7 6 6 5 8 8 9 8 8 8 7 5 5 5 5 5 6 7 7 7 7 7 7 7 7 4 5 6 8 7 7 5
6 5 5 4 4 3 2 3 4 5 6 7 6 6 7 8 8 8 7 7 7 7 7 8 7 7 6 7 7 7 7 6 6 5 6 7 9 9 8 8 8 7 5 6 6 5 5 6 7 6 7 7 7 7 7 7 5 6 8 8 8 7 8
6 6 5 4 4 2 1 1 3 4 4 4 3 3 4 5 6 6 7 7 8 7 7 6 6 7 7 8 7 6 6 6 5 5 5 7 8 9 8 8 8 7 6 5 4 5 5 5 5 5 6 6 6 7 7 6 6 7 10 11 10 9 7
5 5 5 5 5 3 2 2 3 3 3 3 2 2 3 4 5 5 6 6 6 4 5 6 7 6 7 6 6 6 5 5 5 6 6 8 9 2 8 6 4 3 6 8 6 5 4 4 4 3 5 6 5 5 5 6 6 8 10 11 12 10 8
5 5 6 5 4 4 4 3 2 2 1 1 1 1 2 2 3 4 5 5 4 4 5 5 5 6 7 7 7 7 7 7 6 5 5 6 7 6 8 14 15 11 4 6 9 11 12 10 5 5 5 4 3 4 5 6 7 11 13 13 12 10 10
5 4 4 4 4 4 3 2 1 1 1 0 1 2 3 3 3 3 4 1 2 4 5 5 5 5 7 6 8 6 4 5 6 5 5 5 6 5 6 6 9 14 14 11 8 7 8 9 7 8 9 7 5 6 6 3 7 10 12 12 10 9 9
5 5 4 3 3 3 3 3 2 1 1 1 1 1 2 3 2 2 3 3 3 3 4 5 5 5 6 6 5 4 4 7 6 6 6 5 5 5 7 6 6 6 9 8 6 6 6 7 6 5 6 8 8 7 2 6 8 10 11 11 10 9 8
Wind_Direction
190 189 188 186 186 188 184 182 177 175 175 177 176 177 178 178 182 179 185 188 196 181 183 182 180 188 202 213 210 228 295 287 289 292 295 300 300 298 298 300 298 295 300 301 314 312 318 318 312 315 311 308 302 298 293 294 296 297 291 287 291 285 283
191 188 186 185 186 186 183 179 176 175 174 177 177 177 181 180 182 187 190 191 195 188 180 182 187 199 217 220 221 242 263 266 271 277 285 282 274 278 279 287 290 292 289 293 299 305 308 311 312 313 313 306 302 302 302 304 296 296 302 301 296 292 286
194 185 185 184 185 185 179 176 179 178 175 176 178 177 181 180 184 190 190 191 191 186 182 188 198 210 213 220 233 241 251 264 270 279 288 298 308 307 305 292 289 290 295 295 293 300 306 306 306 305 308 309 307 301 299 302 300 300 299 300 298 299 299
192 187 183 182 186 184 178 177 179 181 179 180 179 178 178 178 184 191 195 194 191 191 195 195 205 213 212 220 235 246 252 257 271 286 291 293 300 305 304 303 299 295 288 293 304 304 303 303 302 304 302 299 299 302 297 300 302 301 303 303 301 304 301
191 185 179 182 186 183 180 178 180 185 183 182 176 174 173 178 186 191 193 195 202 202 204 205 209 211 215 225 239 248 254 260 271 275 284 292 291 293 295 306 311 308 305 299 298 297 298 301 305 304 303 298 293 300 303 301 304 306 308 312 307 306 302
188 186 183 182 185 184 181 179 181 183 184 184 173 175 177 185 192 194 189 190 199 204 204 207 210 214 224 222 232 238 242 249 253 262 270 275 276 283 293 301 308 309 306 303 302 300 299 297 302 307 306 305 308 308 311 311 309 310 311 306 307 308 308
187 187 183 184 185 184 182 181 184 185 185 183 173 175 185 189 195 197 189 190 202 203 209 211 215 218 224 229 229 236 241 247 245 256 266 262 262 270 279 287 293 297 303 304 298 299 302 299 299 299 296 302 304 306 311 310 310 308 304 302 301 305 305
187 188 186 184 186 184 184 182 184 184 184 180 177 184 188 189 193 193 198 202 205 212 211 221 204 216 226 227 240 245 247 246 252 262 266 265 264 267 270 275 281 291 293 295 299 297 301 303 302 297 295 292 295 295 300 303 304 301 301 298 302 305 309
187 190 187 185 183 183 182 182 183 181 177 175 180 183 181 185 195 194 198 212 215 218 224 234 219 198 215 233 240 245 244 243 251 258 261 265 268 269 276 278 287 295 296 301 306 304 300 300 299 297 289 285 282 286 288 296 301 302 299 301 302 306 312
184 183 186 186 182 181 181 178 178 171 167 172 177 177 177 183 194 197 208 217 218 222 226 239 246 220 209 224 238 244 243 243 251 263 271 272 274 275 283 292 287 285 287 297 301 305 301 295 293 290 287 283 281 276 278 284 290 296 297 302 306 307 307
182 181 179 180 180 181 181 177 172 168 168 170 175 180 179 184 188 192 204 220 230 236 233 224 227 236 238 241 249 240 241 246 253 260 262 270 278 288 291 303 317 318 309 302 299 300 296 291 289 284 281 281 282 281 277 282 288 285 291 298 304 304 306
181 179 180 180 179 180 181 176 166 164 167 168 178 182 179 182 186 191 204 217 228 231 236 233 232 238 238 249 247 247 246 247 257 264 270 276 282 287 301 302 290 287 290 303 303 303 297 294 289 287 281 276 277 275 274 275 276 279 284 295 302 305 305
185 181 178 181 181 180 176 170 168 163 165 173 180 184 181 182 188 194 202 218 222 225 230 226 231 236 247 251 260 253 251 253 256 264 273 275 278 287 291 294 302 307 310 308 306 304 303 305 301 294 286 281 277 276 277 275 274 273 275 281 294 301 299
191 188 185 183 183 183 182 174 165 167 173 177 183 181 181 184 188 194 205 214 216 219 222 220 219 229 233 242 249 249 248 253 258 261 265 274 283 285 288 294 294 291 291 294 296 299 305 305 302 297 292 289 285 284 281 276 269 266 265 275 288 298 299
192 191 187 188 188 187 183 177 173 171 174 177 181 183 182 185 188 195 207 216 214 222 223 216 215 221 232 235 239 243 247 253 258 258 264 271 278 288 295 296 294 290 288 290 292 296 298 301 305 303 295 289 285 283 282 278 272 265 265 277 292 296 301
197 195 194 192 191 189 185 180 172 170 172 176 182 184 183 185 189 198 207 210 209 217 222 212 213 222 228 234 235 239 243 248 251 255 264 272 281 292 295 293 293 295 294 293 293 294 295 301 300 297 296 294 293 290 286 281 272 216 163 260 288 298 297
203 202 199 196 192 191 186 179 171 170 174 175 181 183 190 190 196 204 213 212 216 212 214 210 213 218 223 228 232 236 241 244 247 253 261 271 284 294 294 289 292 295 296 294 293 295 296 291 295 298 301 300 298 297 292 289 273 156 201 216 234 267 286
209 204 198 194 191 188 183 180 174 174 175 176 182 187 190 194 199 202 210 213 218 218 204 208 214 218 220 224 227 231 237 242 247 253 263 272 288 291 288 288 293 298 298 297 295 294 298 299 298 297 297 295 293 295 300 296 211 170 202 226 226 243 279
214 205 200 194 190 188 185 180 177 177 176 179 185 189 195 195 198 203 203 208 212 214 214 209 213 215 221 222 226 231 235 241 247 257 265 274 289 289 286 287 294 297 296 295 298 298 295 297 295 297 297 295 295 296 302 309 146 186 205 225 232 227 249
220 209 202 197 192 189 184 181 179 179 178 182 189 196 198 199 201 202 200 205 205 209 213 215 219 219 219 219 224 229 237 241 250 258 266 274 281 282 280 286 291 297 299 295 293 294 297 300 303 302 299 299 297 295 295 302 233 194 203 222 228 236 243
213 208 202 194 190 187 181 180 178 177 179 190 197 198 197 197 201 198 197 201 205 204 208 213 219 218 220 220 222 228 235 243 248 258 265 269 271 272 277 282 286 297 299 303 305 303 305 307 305 304 298 298 299 300 304 301 183 194 207 222 230 228 242
202 201 198 193 187 184 178 178 179 178 185 192 194 199 199 199 199 203 203 200 205 203 206 210 216 221 220 221 223 228 234 242 250 255 258 258 260 267 276 280 291 297 298 294 299 303 301 302 308 311 311 307 305 304 300 304 175 200 206 221 228 241 260
185 189 188 188 186 182 178 180 181 187 186 188 193 197 203 205 201 204 205 204 205 206 207 211 217 222 222 223 224 229 235 244 253 253 253 255 257 264 274 283 288 291 294 293 295 301 305 310 312 316 311 311 306 300 301 305 251 193 208 217 211 226 268
169 170 174 178 178 175 174 181 189 189 194 193 199 205 208 205 200 195 199 206 208 208 209 213 218 221 226 225 225 228 237 246 248 248 249 250 254 260 268 272 281 286 286 290 297 298 308 309 308 310 315 308 300 307 315 309 287 184 201 217 214 245 275
158 154 164 171 172 172 177 182 188 187 189 199 208 208 205 202 201 197 198 205 216 219 218 217 217 221 224 224 224 227 237 243 244 244 244 246 250 255 266 274 280 283 281 282 286 288 287 299 307 312 308 309 315 300 275 297 304 171 197 207 218 230 272
153 149 156 159 170 170 168 168 172 186 199 206 218 212 199 197 202 209 210 214 217 224 224 219 213 217 225 229 226 227 229 233 237 238 243 245 247 255 263 265 271 279 285 286 285 295 312 312 311 312 309 311 310 315 313 305 302 338 165 184 210 228 271
155 159 162 167 156 154 164 177 191 201 210 216 217 201 196 198 203 211 209 209 216 227 228 216 209 214 219 222 230 228 225 229 232 235 238 242 248 253 258 262 271 273 273 279 292 304 303 308 309 310 312 311 315 308 315 324 310 15 93 73 56 265 246
147 150 151 150 141 167 178 195 201 216 219 209 191 187 189 196 206 214 211 207 218 225 226 215 204 202 206 215 227 229 227 229 233 231 244 245 241 243 247 255 258 259 260 277 293 293 296 304 307 308 306 306 307 310 307 334 155 310 93 80 58 3 306
154 161 162 160 162 177 192 201 215 223 233 220 212 196 199 201 210 217 216 217 220 220 219 203 207 200 206 215 226 226 227 224 224 227 239 243 239 239 246 250 245 243 255 267 275 286 298 302 301 300 302 306 307 315 317 326 223 169 86 88 21 347 306
146 156 163 185 172 169 194 204 219 233 236 235 191 188 194 203 212 219 222 227 225 214 206 198 201 202 207 213 219 224 223 224 223 226 236 246 245 240 240 241 242 244 243 253 269 285 292 294 295 297 303 310 317 314 318 328 314 142 123 48 12 302 277
152 158 156 167 160 137 184 222 231 239 224 200 196 199 208 208 218 221 227 230 224 208 197 196 200 201 207 212 215 218 224 225 232 236 245 248 241 240 234 232 234 242 237 240 260 270 284 289 294 298 303 310 313 320 327 341 328 334 127 74 341 294 280
133 138 146 148 162 170 213 231 244 242 243 231 218 213 209 214 217 226 229 228 215 204 203 201 199 202 203 209 215 220 224 226 221 220 233 246 244 235 229 233 233 239 230 238 247 252 265 280 292 299 304 309 317 325 330 331 336 345 348 343 338 323 332
137 145 148 157 132 147 186 235 254 259 262 260 230 226 226 221 227 232 233 220 202 201 202 201 199 194 195 209 217 221 226 223 228 233 237 238 237 228 225 228 237 237 240 246 254 265 275 289 293 299 308 316 318 324 331 325 356 5 349 340 333 330 329
140 136 121 112 127 151 193 242 286 312 319 315 307 261 272 264 241 229 225 220 220 212 185 197 192 199 204 213 222 229 221 222 211 224 260 257 238 233 229 233 225 230 226 236 259 256 273 286 303 307 310 315 320 330 330 337 3 8 349 335 328 321 319
116 107 108 110 96 89 70 40 10 357 341 330 353 313 287 277 272 261 220 229 232 204 189 197 200 209 223 221 224 228 215 236 229 233 223 235 231 94 47 23 353 7 75 39 18 2 322 302 297 317 326 319 357 343 340 351 354 350 338 314 305 297 304
106 106 102 98 99 83 82 68 44 3 351 333 325 285 272 262 259 265 255 224 201 187 206 207 212 213 222 226 232 235 222 223 240 238 239 240 233 120 86 60 42 27 64 96 64 50 39 37 38 17 341 331 20 31 359 348 336 328 316 308 308 295 262
124 124 108 102 104 102 103 109 105 140 161 212 231 240 236 231 231 221 246 214 207 207 207 210 222 231 243 235 238 244 245 256 272 263 230 245 270 170 142 108 58 43 48 70 89 71 71 69 60 45 26 11 348 107 135 15 327 321 314 315 311 299 278
105 102 111 125 133 134 138 142 156 163 141 147 242 246 257 258 239 235 234 184 220 222 221 221 230 233 249 246 227 136 215 252 255 259 249 225 220 145 152 146 128 92 38 30 68 102 98 94 95 76 54 36 21 355 76 26 351 329 323 323 323 315 300